This is the latest recevied weather packets stored in our database for station/object K7YVO. If no packets are shown the sender has not sent any weather packets the latest 10 day(s).
| Time | Temp. | Humidity | Pressure | Rain* | Wind** | Luminosity | Snow |
|---|---|---|---|---|---|---|---|
| 1777845559 | 31.11° C | 30% | 1011.5 hPa | 0 mm | - | 649 W/m² | - |
| 1777845256 | 31.11° C | 29% | 1011.4 hPa | 0 mm | - | 658 W/m² | - |
| 1777844953 | 32.78° C | 30% | 1011.5 hPa | 0 mm | - | 665 W/m² | - |
| 1777844651 | 32.22° C | 29% | 1011.4 hPa | 0 mm | - | 670 W/m² | - |
| 1777844348 | 32.78° C | 30% | 1011.4 hPa | 0 mm | - | 676 W/m² | - |
| 1777844046 | 31.67° C | 30% | 1011.6 hPa | 0 mm | - | 683 W/m² | - |
| 1777843742 | 31.67° C | 30% | 1011.6 hPa | 0 mm | - | 691 W/m² | - |
| 1777843440 | 31.67° C | 31% | 1011.5 hPa | 0 mm | - | 693 W/m² | - |
| 1777843137 | 31.11° C | 33% | 1011.7 hPa | 0 mm | - | 698 W/m² | - |
| 1777842834 | 30.56° C | 32% | 1011.8 hPa | 0 mm | - | 703 W/m² | - |
| 1777842528 | 30.56° C | 32% | 1011.7 hPa | 0 mm | - | 707 W/m² | - |
| 1777842226 | 30.56° C | 32% | 1011.9 hPa | 0 mm | - | 711 W/m² | - |
| 1777841921 | 30.56° C | 32% | 1011.9 hPa | 0 mm | - | 715 W/m² | - |
| 1777841618 | 30° C | 33% | 1011.8 hPa | 0 mm | - | 718 W/m² | - |
| 1777841314 | 30° C | 33% | 1012 hPa | 0 mm | - | 723 W/m² | - |
| 1777841012 | 30.56° C | 33% | 1012 hPa | 0 mm | - | 718 W/m² | - |
| 1777840709 | 31.11° C | 33% | 1012.1 hPa | 0 mm | - | 725 W/m² | - |
| 1777840406 | 30° C | 33% | 1012 hPa | 0 mm | - | 728 W/m² | - |
| 1777840103 | 30° C | 33% | 1012.3 hPa | 0 mm | - | 731 W/m² | - |
| 1777839801 | 29.44° C | 34% | 1012.4 hPa | 0 mm | - | 731 W/m² | - |
| 1777839499 | 29.44° C | 34% | 1012.4 hPa | 0 mm | - | 731 W/m² | - |
| 1777839196 | 28.89° C | 34% | 1012.6 hPa | 0 mm | - | 731 W/m² | - |
| 1777838894 | 28.89° C | 34% | 1012.5 hPa | 0 mm | - | 731 W/m² | - |
| 1777838589 | 28.89° C | 34% | 1012.5 hPa | 0 mm | - | 731 W/m² | - |
| 1777838287 | 28.89° C | 35% | 1012.7 hPa | 0 mm | - | 732 W/m² | - |
* Rain latest hour (hover to see other rain measurements)
** Current wind speed in m/s (hover to see current wind gust speed)